Regional Weather Roundup
Issued by NWS

Home | Current Version | Previous Version | Graphics & Text | Print | Product List | Glossary On
Versions: 1 2 3 4 5 6 7 8 9 10 11 12 13 14 15 16 17 18 19 20 21 22 23 24 25 26 27 28 29 30 31 32 33 34 35 36 37 38 39 40 41 42 43 44 45 46 47 48 49 50
000
ASUS45 KBOU 280407
RWRCO

WEATHER ROUNDUP FOR COLORADO
NATIONAL WEATHER SERVICE DENVER/BOULDER CO
1000 PM MDT THU JUL 27 2017

NOTE: "FAIR" INDICATES FEW OR NO CLOUDS BELOW 12000 FEET WITH NO
SIGNIFICANT WEATHER AND/OR OBSTRUCTIONS TO VISIBILITY.

COZ001>005-013-030-031-280500-
...NORTHWEST COLORADO...

CITY           SKY/WX    TMP DP  RH WIND       PRES   REMARKS
CRAIG          FAIR      69  51  52 E5        30.21R
HAYDEN         FAIR      66  45  45 SE8       30.24R
MEEKER         FAIR      72  50  45 CALM      30.22R
RABBIT EARS PA FAIR      55  41  58 N6        30.56R
STEAMBOAT SPGS FAIR      63  51  66 CALM      30.27R
WALDEN         FAIR      54  45  71 N3        30.38R
$$

COZ006>008-011-280500-
...WEST CENTRAL VALLEYS...

CITY           SKY/WX    TMP DP  RH WIND       PRES   REMARKS
GRAND JUNCTION FAIR      84  50  30 NE8       30.04R
MONTROSE       FAIR      75  53  46 SE7       30.16R
EAGLE          FAIR      74  51  44 NW3       30.25R
RIFLE          FAIR      82  50  32 CALM      30.12R
DELTA          FAIR      81  44  26 CALM      30.09R
NUCLA          FAIR      75  46  35 E5        30.20R
$$

COZ017>023-064>068-280500-
...SOUTHWEST COLORADO...

CITY           SKY/WX    TMP DP  RH WIND       PRES   REMARKS
DURANGO        FAIR      70  53  54 E7        30.24R
CORTEZ         MOCLDY    75  52  44 W6        30.19R
PAGOSA SPRINGS FAIR      67  51  56 CALM      30.36R
TELLURIDE      FAIR      61  52  72 SE3       30.46R
WOLF CREEK PAS CLOUDY    46  46 100 NW3       30.72S
$$

COZ009-010-012-014-032>034-037-058>063-280500-
...CENTRAL COLORADO...

CITY           SKY/WX    TMP DP  RH WIND       PRES   REMARKS
ASPEN          FAIR      64  49  57 SW8       30.32R
BUENA VISTA    MOCLDY    64  52  64 E5        30.40R
COPPER MTN     CLOUDY    55  43  62 CALM      30.69R
BERTHOUD PASS  FAIR      45  34  65 NW10G17   30.71R
COTTONWOOD PAS MOCLDY    61  50  67 SW5       30.54R
GUNNISON       FAIR      67  49  52 VRB5      30.34R
KREMMLING      FAIR      68  50  52 CALM      30.32S
LEADVILLE      FAIR      53  50  89 E5        30.49R
MONARCH PASS   CLOUDY    50  43  76 NE9       30.79R
SALIDA         CLOUDY    65  56  75 W5        30.45R
SUNLIGHT       FAIR      59  39  47 NW7       30.60S
WILKERSON PASS CLOUDY    52  41  66 N3        30.67S
$$

COZ069>075-280500-
...SAN LUIS VALLEY/SANGRE DE CRISTO MOUNTAINS...

CITY           SKY/WX    TMP DP  RH WIND       PRES   REMARKS
ALAMOSA        FAIR      65  52  62 NE5       30.35R
DEL NORTE      CLOUDY    65  49  56 SW8       30.40R
LA VETA PASS   NOT AVBL
SAGUACHE         N/A    N/A N/A N/A MISG        N/A
$$

COZ035-036-038>040-280500-
...NORTHERN COLORADO FRONT RANGE...

CITY           SKY/WX    TMP DP  RH WIND       PRES   REMARKS
DENVER INTL AP MOCLDY    75  59  57 S17       30.12S
DMNS CITY PARK   N/A     75  60  58 SE8       30.12S
AURORA         MOCLDY    73  61  68 S17       30.16R
FRONT RANGE AP FAIR      73  61  64 S14G23    30.14S
ERIE MUNI ARPT FAIR      75  60  59 S3        30.10S
BOULDER MUN AP FAIR      77  59  53 SW6       30.11S
CENTENNIAL     DRIZZLE   71  63  75 SW9       30.18R
BROOMFIELD     FAIR      73  61  64 SW5       30.15S
FORT COLLINS   FAIR      74  63  68 S7        30.10R
LONGMONT       FAIR      76  61  58 CALM      30.11S
$$

COZ041-046-047-076>085-087-088-280500-
...PIKES PEAK/PALMER DIVIDE AND SOUTHERN FOOTHILLS...

CITY           SKY/WX    TMP DP  RH WIND       PRES   REMARKS
COLO. SPRINGS  MOCLDY    69  64  84 SE12      30.25S
A. F. ACADEMY  MOCLDY    68  60  75 S9        30.27R
SCHRIEVER AFB  MOCLDY    65  64  94 S10       30.25F
CHEYENNE MTN   CLOUDY    67  58  74 S16G26    30.22F
ELLICOTT       FAIR     N/A N/A N/A S10       30.24S
FALCON           N/A     65  64  96 S10G16    30.31R
FORT CARSON    CLOUDY    68  63  83 S10       30.21F
LIMON          FAIR      67  64  90 S12       30.19R
MONUMENT HILL  FAIR      63  59  88 SW8       30.32R
CANON CITY     CLOUDY    70  57  64 W18G28    30.22R
WALSENBURG     FAIR      66  61  82 W3        30.24R
TRINIDAD       FAIR      68  56  65 S8        30.23R
$$

COZ042>045-048>051-090-091-280500-
...NORTHEAST COLORADO...

CITY           SKY/WX    TMP DP  RH WIND       PRES   REMARKS
GREELEY ARPT   FAIR      77  62  59 SW8       30.07S
AKRON          FAIR      74  60  61 S17       30.12R
BURLINGTON     FAIR      67  63  87 S8        30.13R
WRAY           NOT AVBL
YUMA           FAIR      70  57  64 SE9       30.11R
STERLING       TSTM      70  66  88 W6G21     30.07R
HOLYOKE        FAIR      73  63  68 SE9       30.09R
FORT MORGAN    FAIR      75  60  57 S9        30.09R
$$

COZ086-089-092>099-280500-
...SOUTHEAST COLORADO...

CITY           SKY/WX    TMP DP  RH WIND       PRES   REMARKS
PUEBLO         FAIR      74  67  78 E6        30.15R
LA JUNTA       FAIR      74  67  78 SE8       30.13R
LAMAR          FAIR      72  67  84 SE8       30.09S
SPRINGFIELD      N/A     68  67  96 E6        30.15R
$$



USA.gov is the U.S. government's official web portal to all federal, state and local government web resources and services.